GORIZONT 30 (23108 NORAD) Tracking and Keplerian Element Data

This shows tracking and keplerian element data for the satellite.

Feedback or suggestion? Click here.




ElementValue
Catalog23108
NameGORIZONT 30
Epoch Orbit11245
Epoch Day34.10983257
Epoch Year2025
RAAN351.9076
Inclination14.263
Eccentricity0.0004523
Argument of Perigee262.8455
Mean Anonmoly266.8173
Mean Motion1.00264632
Decay Rate-1.15E-06
L11 23108U 94030A 25034.10983257 -.00000115 00000+0 00000+0 0 9995
L22 23108 14.2630 351.9076 0004523 262.8455 266.8173 1.00264632112459



Live tracking and technical data element details for GORIZONT 30 (NORAD 23108). GORIZONT 30 can be tracked NOW for your location showing map with azimuth and elevation plus other details from your city location.







IsCatalogInMostPopularTable: catalog: 23108, numindb: 300
Update: records affected: 1



GetName: 23108 GORIZONT 30

Hit Count: updated at: Thu, 15 May 2025 18:32:54 GMT